Location: ???????????
(55.5758°N, 38.4970°E)
Time: 18:01:11
(UTC+00:00)

Cosmos 1674 Rocket - Pass Details

Date: 15 November 2025
Orbit: 595 x 623 km, 82.5° (Epoch: 14 December)

Event Time Altitude Azimuth Distance (km) Brightness Sun altitude
Rises 04:09:03 0° 217° (SW) 2,900 6.8 -7.3°
Reaches altitude 10° 04:11:27 10° 227° (SW) 1,997 5.9 -7.0°
Maximum altitude 04:15:29 34° 292° (WNW) 1,044 4.2 -6.5°
Drops below altitude 10° 04:19:31 10° 358° (N) 2,003 5.9 -5.9°
Sets 04:21:56 0° 8° (N) 2,910 6.8 -5.6°
